Theta_e
324 324 324 322 322 322 322 322 323 325 324 323 322 322 323 324 324 320 313 321 326 331 328 322 321 319 318 314 317 312 300 297 299 301 303 302 301 305 306 308 309 314 313 317 324
323 324 324 324 324 323 323 323 323 324 324 322 322 321 322 323 316 311 323 332 332 330 317 315 315 317 309 308 312 305 298 300 305 305 304 304 302 303 303 302 303 313 320 323 323
322 323 323 323 324 324 323 324 324 324 323 322 321 320 321 320 309 304 325 330 332 328 321 319 317 317 307 305 307 306 299 304 306 309 309 307 306 307 304 302 303 305 317 320 319
320 321 322 323 323 323 323 323 324 323 322 321 320 320 321 315 282 314 326 333 330 323 318 314 315 309 305 301 305 301 305 305 306 307 308 305 308 306 305 307 311 310 319 320 319
319 320 321 321 322 323 323 323 323 323 322 321 320 320 314 304 303 317 326 328 322 318 314 312 309 309 303 303 304 299 301 304 306 306 304 308 306 305 305 309 310 311 317 319 320
318 319 320 320 321 322 322 323 323 323 322 321 319 321 307 293 309 316 320 319 318 315 313 313 309 310 306 304 301 303 303 304 305 305 304 304 303 304 305 308 309 310 309 316 319
317 318 319 319 320 321 322 322 323 323 322 320 320 315 304 297 312 311 319 318 318 316 310 314 313 309 306 302 306 305 300 302 302 303 302 304 299 301 305 304 306 306 307 307 309
316 317 318 319 319 320 321 322 322 322 321 320 320 309 296 310 310 309 314 315 317 318 315 315 316 312 309 306 303 299 298 291 299 302 303 302 292 300 305 302 303 303 303 304 306
316 316 317 318 318 319 319 321 321 321 320 318 308 303 295 311 302 307 309 311 313 314 314 317 314 306 304 299 294 293 287 291 295 301 299 299 293 301 304 301 301 300 302 303 303
315 315 316 317 317 319 318 319 319 318 315 313 310 299 300 299 303 306 308 311 310 309 307 305 304 296 296 293 286 290 288 291 291 296 297 295 295 300 303 302 301 300 301 301 303
314 315 316 316 317 318 315 312 305 302 306 297 299 297 301 304 309 305 309 309 308 305 295 299 296 292 293 295 295 294 292 291 292 297 294 294 293 296 302 300 299 298 299 300 303
313 314 316 315 316 317 312 304 302 303 295 302 303 301 303 304 298 303 311 302 301 296 298 295 290 295 297 298 296 295 290 289 294 296 294 292 292 295 297 297 298 299 299 301 303
313 313 314 315 315 311 306 306 306 306 294 296 300 300 300 302 297 297 306 302 297 294 294 291 292 297 296 294 294 293 291 289 291 293 293 290 289 290 294 295 297 298 300 302 302
312 312 313 314 307 305 302 307 307 306 287 290 293 297 299 302 295 303 305 301 296 293 294 294 297 296 293 293 294 289 295 295 293 288 283 290 280 286 291 293 294 295 294 297 300
311 312 312 313 303 301 303 306 306 302 275 290 292 302 299 295 295 297 304 301 292 291 292 288 292 291 292 293 295 292 296 294 293 289 285 283 282 284 288 288 291 293 295 295 297
311 312 312 309 305 305 307 305 301 283 274 286 293 290 291 294 295 296 297 302 300 293 292 290 296 294 293 296 296 297 295 292 291 287 282 284 283 280 285 288 290 293 297 299 300
310 310 309 308 300 307 306 299 283 277 286 284 286 290 289 290 291 292 292 292 287 283 284 291 290 294 296 291 293 295 291 277 275 280 278 284 283 286 289 293 292 295 296 297 298
309 309 308 306 308 307 303 288 276 282 281 287 287 288 286 290 290 291 289 287 292 286 282 282 281 290 295 293 289 289 290 277 271 274 277 284 280 285 293 295 296 295 296 295 292
309 304 302 306 308 306 294 280 279 280 285 284 286 284 285 290 288 290 288 287 290 291 283 281 281 290 293 296 295 289 286 289 281 277 277 280 284 290 294 294 295 295 295 293 293
301 298 299 307 307 301 288 284 281 287 288 286 281 285 282 286 286 286 287 290 289 293 291 286 280 288 292 295 294 292 293 285 281 273 273 277 279 283 288 290 294 293 296 295 294
298 290 299 307 305 293 282 284 284 289 290 285 281 282 284 285 286 285 285 288 292 291 293 289 285 284 290 288 288 288 287 288 286 281 276 273 277 286 290 292 290 292 295 294 295
294 284 301 304 287 285 283 285 289 288 290 288 286 284 284 286 286 285 284 288 294 293 288 291 286 278 284 290 292 292 290 289 283 278 279 280 279 290 290 292 292 292 294 296 296
288 290 301 299 282 280 284 284 287 288 288 288 285 287 288 286 284 287 287 291 293 292 289 291 284 277 276 285 288 287 290 290 288 284 281 276 281 290 289 292 293 294 295 295 294
288 282 288 292 286 283 281 279 283 289 288 290 288 288 286 285 288 285 286 290 292 293 296 295 285 282 277 281 286 284 287 289 288 282 282 282 285 287 289 289 292 294 294 294 292
285 283 286 282 283 280 284 283 280 282 286 289 286 288 286 282 285 284 287 288 291 294 294 292 283 284 284 285 285 285 286 287 285 287 282 285 285 289 290 293 290 294 294 293 291
284 283 284 286 285 283 282 277 279 282 284 283 281 286 287 285 286 284 287 287 287 290 291 292 276 284 277 285 285 281 285 286 288 288 287 288 286 293 292 291 291 295 294 292 291
289 289 285 285 283 281 277 278 281 284 285 286 285 285 284 287 289 292 293 292 289 289 288 289 283 279 279 283 281 280 283 285 286 287 289 284 290 291 290 292 293 294 293 291 289
Wind_Speed
17 16 14 14 12 11 10 8 6 6 4 1 2 4 6 9 9 3 4 4 1 5 7 6 4 4 2 2 1 3 4 2 3 2 6 2 1 2 1 5 2 3 3 3 12
9 16 16 16 13 12 11 10 8 6 5 4 3 3 6 8 3 6 7 6 2 4 4 6 4 6 2 1 1 4 4 9 5 1 3 1 2 2 2 2 1 4 5 6 9
12 10 12 15 14 14 12 11 10 9 7 5 3 3 5 5 3 6 3 13 5 1 3 1 5 2 2 1 3 4 5 4 2 3 3 3 2 4 5 1 4 5 7 6 4
13 12 10 12 14 14 14 12 10 9 8 6 4 3 2 1 6 2 6 7 6 3 2 2 2 2 4 4 4 3 4 2 1 4 3 2 2 4 2 5 4 3 12 9 10
14 13 12 11 13 15 14 13 12 11 10 8 6 3 1 2 8 2 2 4 4 3 3 2 3 2 4 3 2 3 3 2 2 2 4 3 5 5 6 9 6 3 8 11 11
15 14 13 12 12 15 15 14 12 11 10 9 7 5 2 3 4 4 5 3 2 4 4 4 4 1 3 3 2 1 2 0 2 3 3 3 4 3 6 5 6 6 6 9 12
18 15 14 13 12 13 15 15 14 12 11 11 10 3 1 11 2 7 4 4 4 5 5 4 1 1 1 2 3 2 3 4 2 2 3 1 8 8 7 1 8 10 10 8 11
19 17 16 14 13 13 17 17 15 13 12 11 9 3 6 5 5 8 7 2 1 6 4 2 2 2 3 3 3 3 4 2 4 4 6 7 9 6 10 4 10 10 9 9 13
19 18 17 17 15 14 15 18 14 13 12 10 4 4 7 4 5 8 4 2 3 1 4 1 2 4 2 5 3 2 3 7 7 5 4 8 3 8 11 6 9 9 9 8 9
18 19 18 17 16 14 13 16 15 10 9 3 2 2 5 5 4 4 4 5 2 2 1 3 2 2 2 4 8 7 4 4 6 4 6 7 9 9 8 6 9 9 9 9 10
19 19 21 19 16 15 10 5 6 7 9 6 9 4 3 2 4 4 4 3 2 4 5 4 8 13 11 5 4 5 4 7 4 6 3 8 10 12 12 8 9 8 10 11 14
22 20 20 20 20 16 8 5 3 7 7 12 2 8 2 3 3 3 8 7 7 9 5 3 12 7 4 6 6 9 3 4 7 7 1 7 12 11 9 7 9 11 12 17 16
23 23 21 19 18 11 11 8 7 6 4 5 8 4 5 5 5 8 9 5 6 10 10 9 5 11 8 6 10 7 12 4 6 6 3 7 13 7 7 5 7 10 13 14 17
24 24 23 22 12 8 10 6 4 0 3 6 10 6 4 5 5 7 11 5 4 11 7 10 11 4 7 10 10 15 5 7 6 1 5 4 10 5 6 10 8 12 8 13 15
26 25 26 23 8 12 7 9 4 5 8 13 10 7 8 9 6 6 7 1 6 6 7 6 6 11 12 8 7 6 6 10 7 2 4 2 5 6 4 5 11 10 9 11 12
28 26 26 18 5 10 13 12 5 9 10 7 8 12 12 10 4 3 4 4 4 4 5 9 2 7 9 7 8 5 4 2 4 2 9 8 6 5 6 6 5 7 7 6 4
29 27 24 14 14 14 16 10 9 10 7 8 9 14 20 14 9 8 11 18 10 9 11 10 19 8 3 6 4 8 8 1 2 5 9 3 8 14 4 13 8 8 7 6 2
29 26 21 9 12 20 11 10 15 6 11 3 8 13 17 13 16 8 11 15 16 3 5 11 7 16 9 9 9 9 11 7 9 5 4 4 10 9 11 10 11 9 7 4 5
27 13 12 10 18 14 13 15 11 10 9 10 12 14 9 11 9 10 15 16 17 16 9 8 9 1 7 6 12 7 12 8 3 2 1 6 8 9 11 11 9 6 6 7 7
12 10 10 16 19 14 15 18 11 10 12 6 9 15 14 19 11 17 15 15 9 22 4 4 2 6 10 7 6 8 9 7 1 6 6 6 6 11 6 5 9 5 8 7 4
8 9 10 18 15 11 10 7 5 9 11 11 8 8 13 15 15 18 11 4 21 16 18 4 4 3 8 14 16 6 6 5 5 6 6 2 7 9 13 11 9 7 7 9 6
7 7 11 13 10 4 6 7 2 10 3 5 6 5 12 19 19 16 16 19 16 16 20 10 2 4 12 2 6 13 16 15 7 7 4 2 9 3 4 4 6 7 7 7 7
11 4 9 10 8 2 3 5 3 4 7 7 8 5 5 18 13 14 14 7 11 19 18 15 5 2 7 4 2 13 16 7 4 3 11 5 12 0 2 6 3 6 7 6 6
6 6 3 7 1 6 6 3 5 5 5 3 3 4 5 7 11 17 8 5 10 16 10 19 4 13 15 6 8 9 11 17 13 8 12 12 23 6 1 3 3 4 5 6 5
3 3 2 13 13 7 7 8 7 6 2 3 2 7 12 11 13 7 15 5 6 13 14 12 14 15 11 3 2 4 14 17 17 26 11 25 16 14 10 14 7 6 5 5 3
6 7 3 8 14 10 5 6 12 8 10 6 5 6 15 11 17 20 14 12 13 11 19 12 6 14 4 8 5 3 8 10 19 23 16 27 18 16 8 7 5 6 7 7 6
1 3 7 8 10 10 6 7 6 8 5 10 8 5 1 16 9 16 18 14 4 13 16 17 8 4 14 7 4 7 22 14 8 8 16 18 31 4 5 8 10 9 9 9 6
Wind_Direction
227 218 217 217 214 219 220 218 233 191 190 223 304 342 349 347 323 307 263 249 227 325 323 319 336 321 4 351 347 93 76 230 256 48 288 329 59 0 226 113 93 30 139 207 142
220 222 219 216 211 213 215 211 206 189 194 231 265 321 336 349 317 258 258 255 189 352 16 14 353 351 6 342 345 105 146 209 191 169 331 229 138 198 93 99 102 43 20 81 131
222 204 218 227 213 206 208 207 199 185 187 202 228 296 325 351 341 252 245 245 217 85 84 304 289 217 214 56 200 171 206 216 128 43 26 359 15 317 130 231 202 173 172 157 153
225 222 211 218 222 210 203 201 198 183 182 184 199 225 342 19 215 310 306 152 164 125 63 341 338 190 144 201 221 173 205 227 296 30 319 266 300 330 261 230 75 58 173 166 178
214 213 213 208 217 218 204 199 197 183 178 175 180 170 124 186 249 245 285 142 135 128 189 195 185 189 178 221 181 193 245 237 258 0 298 253 236 236 252 269 294 235 157 188 197
218 210 207 210 210 215 205 200 197 187 177 167 170 129 78 236 249 232 202 140 187 164 185 189 204 262 280 239 163 210 239 217 59 332 258 240 242 180 245 232 276 312 206 216 210
206 206 205 206 208 208 208 198 191 186 181 174 162 117 210 236 124 358 237 186 189 182 175 219 131 303 315 290 222 186 281 351 219 173 284 75 297 209 247 343 279 276 278 252 227
219 197 200 202 211 212 208 196 185 176 177 179 152 103 240 242 294 305 303 292 167 198 216 263 291 271 225 228 33 118 67 319 283 179 243 151 251 260 272 235 266 269 269 264 268
219 213 201 201 204 213 214 190 176 173 172 147 101 133 251 287 185 229 212 275 315 109 204 140 162 214 233 147 54 313 191 225 309 230 234 185 267 240 252 187 239 262 271 274 281
215 209 208 202 200 205 210 202 170 158 144 111 77 121 267 220 208 165 186 235 209 98 149 136 185 182 120 155 199 203 187 223 215 266 191 242 263 269 271 260 232 244 273 276 269
214 203 205 203 199 200 196 158 175 170 182 190 176 221 298 203 122 159 174 159 185 159 171 193 204 210 206 223 220 155 187 230 266 241 259 256 256 259 257 257 262 269 265 269 264
211 206 199 201 196 196 160 193 197 138 161 236 60 241 6 336 109 184 141 174 184 197 179 168 227 219 223 200 219 232 209 255 286 283 257 282 278 251 248 232 234 246 257 259 263
209 201 198 199 191 177 187 183 160 139 105 230 211 235 254 148 208 200 158 181 196 205 197 211 199 186 204 207 214 233 224 191 236 319 290 314 282 222 245 250 256 254 250 261 254
206 197 197 191 177 166 194 163 159 333 133 188 195 255 233 173 242 185 185 146 226 195 203 237 225 175 196 217 195 230 195 218 246 247 251 30 288 247 241 270 264 257 265 258 258
206 197 191 181 139 186 146 146 130 59 225 162 162 187 177 178 150 222 154 149 172 188 170 215 178 220 229 207 188 220 167 205 221 189 350 181 279 273 277 263 259 259 264 265 251
202 197 191 184 168 159 130 134 83 193 214 169 145 177 156 198 181 88 123 116 183 181 266 223 198 206 202 179 181 158 124 113 59 107 254 222 188 239 228 221 248 272 225 288 19
196 197 191 170 185 142 136 132 199 219 156 172 177 175 180 177 199 166 168 189 180 187 213 207 232 249 180 183 154 208 143 128 304 212 238 247 197 253 263 260 232 262 247 307 94
188 192 196 169 144 146 158 173 212 145 173 173 158 159 186 148 202 181 155 196 211 177 149 202 213 217 202 204 197 199 185 162 199 203 235 143 226 253 236 259 259 251 250 190 171
177 185 184 170 151 173 169 204 189 165 161 140 134 171 179 186 163 183 192 202 199 191 178 188 235 204 192 179 160 177 200 174 117 349 108 222 284 292 255 256 262 278 154 180 186
167 165 192 164 157 177 191 195 184 163 140 157 155 184 179 184 166 186 180 209 200 197 179 210 240 211 201 158 210 186 157 175 209 177 235 258 264 240 309 262 254 251 198 194 174
146 153 162 161 164 197 205 196 180 184 141 146 177 150 193 180 188 191 199 200 197 190 191 203 166 307 129 207 187 162 200 209 163 164 193 239 255 216 235 252 240 250 198 156 137
130 150 162 155 193 177 195 145 238 157 151 143 125 123 180 185 197 198 207 201 194 161 193 191 177 199 208 343 233 212 212 199 199 219 225 179 257 281 184 70 74 96 134 108 109
137 108 164 168 192 94 91 123 161 221 182 155 166 162 173 181 197 206 208 201 174 175 178 176 201 143 346 316 213 209 217 201 187 104 214 160 260 207 92 98 128 129 108 117 120
113 132 152 178 51 121 127 125 112 112 245 60 155 90 135 188 212 194 226 217 180 189 169 172 161 211 214 214 144 208 202 214 213 219 229 223 243 283 309 201 210 47 133 144 146
64 142 180 176 183 143 151 159 134 146 148 196 178 229 205 196 193 221 204 171 165 189 186 170 216 214 224 141 127 204 201 198 207 228 211 245 241 230 240 257 180 196 176 160 164
128 145 118 123 140 136 161 187 168 155 153 180 177 218 231 237 205 204 183 190 191 188 189 183 238 208 225 208 183 202 224 217 220 228 231 250 265 243 221 260 191 194 198 204 210
46 61 99 137 140 159 192 168 176 126 213 168 151 119 258 241 297 245 214 212 188 177 193 185 174 129 238 176 155 242 232 212 216 212 215 235 239 233 211 212 243 257 208 203 162